User: anonymous   Login
Location: Unspecified
(0.0000°N, 0.0000°E)
Time: 10:33:38
(UTC+00:00)
Language:

DSP F6R - Orbit

View from above orbital plane
View from above orbital plane
View from above satellite
View from above satellite

Ground track
Ground track

The orbit data is extracted from the following two-line orbital elements,

1 15453U 84129A   18227.51331240 0.00000000  00000-0  00000-0 0    04
2 15453  15.5946 346.4471 0006000 287.6145  72.3834  0.98850751    08
Epoch (UTC): 15 August 2018 12:19:10
Eccentricity: 0.0006000
inclination: 15.5946°
perigee height: 36164 km
apogee height: 36215 km
right ascension of ascending node: 346.4471°
argument of perigee: 287.6145°
revolutions per day: 0.98850751
mean anomaly at epoch: 72.3834°
orbit number at epoch: 0

The dashed part of the orbit path shows where the satellite is in the earth's shadow,  

DLR